{"data":{"norad_id":39260,"intl_designator":"2013-052A","name":"FENGYUN 3C","alt_names":[],"object_type":"PAYLOAD","status":"ACTIVE","operator":null,"country":"PRC","launch_date":"2013-09-23","launch_site_code":"TAISC","launch_vehicle":null,"mission":null,"orbit_class":"UNKNOWN","rcs_meters":7.436,"size_class":null,"mass_kg":null,"dimensions":null,"purposes":["earth_obs"],"wikipedia_slug":null,"has_3d_model":false,"image_url":null,"decayed_at":null,"tle_current":{"epoch":"2026-05-25T05:11:21.183360Z","epoch_age_seconds":55693,"freshness":"FRESH","line1":"1 39260U 13052A   26145.21621740  .00000064  00000+0  53670-4 0  9996","line2":"2 39260  98.4969 120.1480 0015879  89.4365 270.8629 14.15748907655318","mean_motion":14.15748907,"eccentricity":0.0015879,"inclination_deg":98.4969,"raan_deg":120.148,"arg_perigee_deg":89.4365,"mean_anomaly_deg":270.8629,"bstar":5.367e-5,"rev_number":65531,"period_min":101.71295156084,"perigee_km":828.30430385956,"apogee_km":851.2269189729,"semimajor_km":7217.9026114162,"source":"CELESTRAK","updated_at":"2026-05-25T13:38:11.914583Z"}}}